Location: Muenchen
(48.1800°N, 11.5800°E)
Time: 10:01:50
(UTC+01:00)

ISS - All Passes

Search period start: 25 February 2017 00:00
Search period end: 07 March 2017 00:00
Orbit: 399 x 408 km, 51.6° (Epoch: 25 February)

Date Brightness Start Highest point End Pass type
(mag) Time Alt. Az. Time Alt. Az. Time Alt. Az.
25 Feb - 07:49:54 10° S 07:51:55 15° SE 07:53:55 10° E daylight
25 Feb - 09:24:39 10° WSW 09:27:56 75° SSE 09:31:14 10° ENE daylight
25 Feb - 11:01:22 10° W 11:04:33 45° N 11:07:46 10° ENE daylight
25 Feb - 12:38:05 10° WNW 12:41:21 57° NNE 12:44:36 10° E daylight
25 Feb - 14:14:39 10° WNW 14:17:46 39° SSW 14:20:52 10° SE daylight
26 Feb - 08:32:16 10° SW 08:35:27 47° SSE 08:38:39 10° ENE daylight
26 Feb - 10:08:41 10° W 10:11:56 52° NNW 10:15:11 10° ENE daylight
26 Feb - 11:45:31 10° WNW 11:48:45 47° N 11:51:56 10° E daylight
26 Feb - 13:22:02 10° WNW 13:25:19 64° SSW 13:28:34 10° SE daylight
26 Feb - 14:59:46 10° WSW 15:01:15 12° SW 15:02:43 10° SSW daylight
27 Feb - 07:40:07 10° SSW 07:43:02 29° SE 07:45:57 10° E daylight
27 Feb - 09:16:02 10° WSW 09:19:19 68° NNW 09:22:38 10° ENE daylight
27 Feb - 10:52:54 10° WNW 10:56:06 43° N 10:59:16 10° ENE daylight
27 Feb - 12:29:28 10° WNW 12:32:47 85° NNE 12:36:05 10° ESE daylight
27 Feb - 14:06:24 10° W 14:08:56 21° SW 14:11:28 10° S daylight
28 Feb - 06:48:21 10° S 06:50:40 18° SE 06:52:59 10° E daylight
28 Feb - 08:23:27 10° WSW 08:26:45 86° SSE 08:30:04 10° ENE daylight
28 Feb - 10:00:14 10° WNW 10:03:25 44° N 10:06:37 10° ENE daylight
28 Feb - 11:36:54 10° WNW 11:40:12 62° NNE 11:43:28 10° E daylight
28 Feb - 13:13:31 10° W 13:16:33 34° SW 13:19:34 10° SSE daylight
01 Mar - 05:57:40 10° SE 05:58:21 10° SE 05:59:03 10° ESE visible
01 Mar - 07:30:59 10° SW 07:34:13 55° SSE 07:37:28 10° ENE daylight
01 Mar - 09:07:31 10° W 09:10:44 49° N 09:13:59 10° ENE daylight
01 Mar - 10:44:19 10° WNW 10:47:33 49° N 10:50:47 10° E daylight
01 Mar - 12:20:50 10° WNW 12:24:05 55° SSW 12:27:18 10° SE daylight
01 Mar - 13:59:18 10° WSW 13:59:56 10° SW 14:00:34 10° SW daylight
02 Mar - 06:38:43 10° SSW 06:41:44 34° SE 06:44:46 10° E daylight
02 Mar - 08:14:49 10° W 08:18:05 62° NNW 08:21:23 10° ENE daylight
02 Mar - 09:51:40 10° WNW 09:54:52 44° N 09:58:03 10° ENE daylight
02 Mar - 11:28:13 10° WNW 11:31:32 86° SSW 11:34:50 10° ESE daylight
02 Mar - 13:05:18 10° W 13:07:37 18° SW 13:09:54 10° S daylight
03 Mar - 05:46:45 10° S 05:49:19 21° SE 05:51:52 10° E visible
03 Mar - 07:22:09 10° WSW 07:25:28 85° NNW 07:28:46 10° ENE daylight
03 Mar - 08:58:58 10° WNW 09:02:10 43° N 09:05:21 10° ENE daylight
03 Mar - 10:35:37 10° WNW 10:38:55 68° NNE 10:42:12 10° ESE daylight
03 Mar - 12:12:17 10° W 12:15:13 29° SW 12:18:06 10° SSE daylight
04 Mar - 04:55:27 10° SSE 04:56:57 13° SE 04:58:26 10° ESE visible
04 Mar - 06:29:37 10° SW 06:32:52 64° SSE 06:36:09 10° ENE daylight
04 Mar - 08:06:14 10° W 08:09:27 47° N 08:12:40 10° ENE daylight
04 Mar - 09:42:59 10° WNW 09:46:15 52° NNE 09:49:29 10° E daylight
04 Mar - 11:19:32 10° WNW 11:22:42 47° SSW 11:25:54 10° SE daylight
05 Mar - 05:37:14 10° SW 05:40:20 39° SSE 05:43:27 10° ENE visible
05 Mar - 07:13:29 10° W 07:16:44 57° NNW 07:20:01 10° ENE daylight
05 Mar - 08:50:20 10° WNW 08:53:32 45° N 08:56:44 10° E daylight
05 Mar - 10:26:50 10° WNW 10:30:09 76° SSW 10:33:27 10° ESE daylight
05 Mar - 12:04:09 10° W 12:06:10 15° SW 12:08:09 10° S daylight
06 Mar - 04:45:07 10° SSW 04:47:51 24° SE 04:50:35 10° E visible
06 Mar - 06:20:46 10° WSW 06:24:04 76° NNW 06:27:22 10° ENE daylight
06 Mar - 07:57:37 10° WNW 08:00:47 43° N 08:03:58 10° ENE daylight
06 Mar - 09:34:12 10° WNW 09:37:30 75° NNE 09:40:49 10° ESE daylight
06 Mar - 11:10:59 10° W 11:13:44 25° SW 11:16:30 10° SSE daylight
